Regional Weather Roundup
Issued by NWS

Home | Current Version | Previous Version | Graphics & Text | Print | Product List | Glossary On
Versions: 1 2 3 4 5 6 7 8 9 10 11 12 13 14 15 16 17 18 19 20 21 22 23 24 25 26 27 28 29 30 31 32 33 34 35 36 37 38 39 40 41 42 43 44 45 46 47 48 49 50
000
ASUS45 KBOU 120510
RWRCO

WEATHER ROUNDUP FOR COLORADO
NATIONAL WEATHER SERVICE DENVER/BOULDER CO
1000 PM MST MON DEC 11 2017

NOTE: "FAIR" INDICATES FEW OR NO CLOUDS BELOW 12000 FEET WITH NO
SIGNIFICANT WEATHER AND/OR OBSTRUCTIONS TO VISIBILITY.

COZ001>005-013-030-031-120600-
...NORTHWEST COLORADO...

CITY           SKY/WX    TMP DP  RH WIND       PRES   REMARKS
CRAIG          FAIR      14   8  77 CALM      30.53S
HAYDEN         FAIR      25  13  60 E13       30.53S WCI  14
MEEKER         FAIR      25   9  50 CALM      30.53R
RABBIT EARS PA FAIR      27   9  46 W5        30.57S WCI  21
STEAMBOAT SPGS FAIR      24  11  59 CALM      30.54R
WALDEN         FAIR      14   5  67 SE7       30.55R WCI   4
$$

COZ006>008-011-120600-
...WEST CENTRAL VALLEYS...

CITY           SKY/WX    TMP DP  RH WIND       PRES   REMARKS
GRAND JUNCTION FAIR      23  -1  35 CALM      30.50R
MONTROSE       FAIR      22   1  40 SE10      30.52R WCI  11
EAGLE          FAIR      17   9  70 CALM      30.60R
RIFLE          FAIR      27   4  37 CALM      30.53R
DELTA          FAIR      29  -3  25 NE7       30.52R WCI  22
NUCLA          FAIR      30  -4  22 E8        30.52R WCI  23
$$

COZ017>023-064>068-120600-
...SOUTHWEST COLORADO...

CITY           SKY/WX    TMP DP  RH WIND       PRES   REMARKS
DURANGO        FAIR      21   2  43 CALM      30.45R
CORTEZ         FAIR      18   0  45 CALM      30.45R
PAGOSA SPRINGS FAIR      26  -1  31 CALM      30.48R
TELLURIDE      FAIR      32   2  27 SE5       30.56R WCI  27
WOLF CREEK PAS FAIR      30  -8  19 N6        30.66R WCI  24
$$

COZ009-010-012-014-032>034-037-058>063-120600-
...CENTRAL COLORADO...

CITY           SKY/WX    TMP DP  RH WIND       PRES   REMARKS
ASPEN          FAIR      27  12  53 SW7       30.54R WCI  19
BUENA VISTA    FAIR      28   3  33 CALM      30.52R
COPPER MTN     NOT AVBL
BERTHOUD PASS  FAIR      19   9  63 NW17      30.58S WCI   4
COTTONWOOD PAS FAIR      37   3  23 S10       30.54S
GUNNISON       FAIR      15   3  59 CALM      30.56R
KREMMLING      FAIR      12   7  79 CALM      30.59S
LEADVILLE      FAIR      19  10  68 E5        30.56S WCI  12
MONARCH PASS   FAIR      30  -2  24 SW7       30.70S WCI  23
SALIDA         FAIR      29   4  35 W8        30.59R WCI  21
SUNLIGHT       FAIR      28   5  37 NE5       30.64R WCI  23
WILKERSON PASS FAIR      32  -4  21 N5        30.59S WCI  27
$$

COZ069>075-120600-
...SAN LUIS VALLEY/SANGRE DE CRISTO MOUNTAINS...

CITY           SKY/WX    TMP DP  RH WIND       PRES   REMARKS
ALAMOSA        FAIR      13  -5  44 W9        30.49R WCI   1
DEL NORTE      FAIR      26  -2  30 SW6       30.50S WCI  19
LA VETA PASS   FAIR      34  -2  21 W7          N/A  WCI  28
SAGUACHE       FAIR      32   1  27 NW10      30.50S WCI  24
$$

COZ035-036-038>040-120600-
...NORTHERN COLORADO FRONT RANGE...

CITY           SKY/WX    TMP DP  RH WIND       PRES   REMARKS
DENVER INTL AP FAIR      26   7  44 S14       30.45S WCI  14
DMNS CITY PARK NOT AVBL
AURORA         CLEAR     34  10  35 SE12      30.46S WCI  26
FRONT RANGE AP FAIR      27   8  43 S7        30.47R WCI  20
ERIE MUNI ARPT FAIR      34   9  35 S5        30.51R WCI  30
BOULDER MUN AP FAIR      36  10  35 S3        30.45S
CENTENNIAL     FAIR      35  11  36 S9        30.46S WCI  28
BROOMFIELD     FAIR      36  10  35 SW3       30.47R
FORT COLLINS   FAIR      34  12  40 S8        30.45R WCI  27
LONGMONT       FAIR      27  12  52 SW3       30.48S
$$

COZ041-046-047-076>085-087-088-120600-
...PIKES PEAK/PALMER DIVIDE AND SOUTHERN FOOTHILLS...

CITY           SKY/WX    TMP DP  RH WIND       PRES   REMARKS
COLO. SPRINGS  FAIR      33   5  30 E9        30.48R WCI  25
A. F. ACADEMY  FAIR      23   2  40 N13       30.48R WCI  12
SCHRIEVER AFB  FAIR      37   4  25 NE3       30.49R
CHEYENNE MTN   FAIR      37   1  22 CALM      30.43R
ELLICOTT         N/A    N/A N/A N/A CALM      30.47R
FALCON         FAIR      30   3  31 NW5       30.50R WCI  25
FORT CARSON    FAIR      31   2  28 NW7       30.46R WCI  25
LIMON          FAIR      26   6  42 CALM      30.47R
MONUMENT HILL  FAIR      28   7  40 SE5       30.50S WCI  23
CANON CITY     FAIR      36   3  25 W10       30.46S
WALSENBURG     FAIR      32   5  32 SW6       30.49R WCI  26
TRINIDAD       FAIR      27   7  42 W9        30.48S WCI  18
$$

COZ042>045-048>051-090-091-120600-
...NORTHEAST COLORADO...

CITY           SKY/WX    TMP DP  RH WIND       PRES   REMARKS
GREELEY ARPT   FAIR      29  13  51 SE10      30.45S WCI  20
AKRON          FAIR      30   9  41 N13       30.41S WCI  20
BURLINGTON     FAIR      28  10  46 N7        30.43R WCI  21
WRAY           FAIR      23  10  58 W8        30.44R WCI  14
YUMA           FAIR      32  12  43 NW8       30.43R WCI  25
STERLING       FAIR      32  14  47 NW12      30.42S WCI  23
HOLYOKE        FAIR      25  10  54 NW6       30.43S WCI  18
FORT MORGAN    FAIR      30   8  39 N13       30.44S WCI  20
$$

COZ086-089-092>099-120600-
...SOUTHEAST COLORADO...

CITY           SKY/WX    TMP DP  RH WIND       PRES   REMARKS
PUEBLO         FAIR      25   3  38 CALM      30.47R
LA JUNTA       FAIR      32   7  35 NW8       30.47R WCI  25
LAMAR          FAIR      25   6  44 SW7       30.45R WCI  17
SPRINGFIELD      N/A     25   8  48 NW9       30.45R WCI  15
$$



USA.gov is the U.S. government's official web portal to all federal, state and local government web resources and services.